Hourly Weather Çekerek

Today, 22 June, Tuesday

Time Temperature Precipitation Wind Pressure Humidity
00:00 +18°C° 0.2 mm 1 mps 675 mmHg 79%
01:00 +18°C° 0.2 mm 1 mps 675 mmHg 82%
02:00 +16°C° 0 mm 1 mps 675 mmHg 87%
03:00 +16°C° 0.4 mm 1 mps 675 mmHg 88%
04:00 +16°C° 0.4 mm 1 mps 675 mmHg 88%
05:00 +16°C° 0.4 mm 1 mps 675 mmHg 89%
06:00 +18°C° 0.2 mm 1 mps 676 mmHg 83%
07:00 +18°C° 0.2 mm 0 mps 676 mmHg 78%
08:00 +21°C° 0 mm 1 mps 676 mmHg 73%
09:00 +22°C° 0.3 mm 1 mps 677 mmHg 65%
10:00 +24°C° 0.3 mm 1 mps 677 mmHg 58%
11:00 +26°C° 0.3 mm 1 mps 677 mmHg 50%
12:00 +26°C° 0.3 mm 2 mps 677 mmHg 49%
13:00 +26°C° 0.3 mm 2 mps 677 mmHg 47%
14:00 +27°C° 0 mm 3 mps 677 mmHg 44%
15:00 +25°C° 1.6 mm 3 mps 677 mmHg 54%
16:00 +21°C° 1.6 mm 4 mps 677 mmHg 64%
17:00 +19°C° 1.6 mm 4 mps 677 mmHg 75%
18:00 +18°C° 0.4 mm 3 mps 677 mmHg 79%
19:00 +17°C° 0.4 mm 2 mps 677 mmHg 83%
20:00 +16°C° 0.4 mm 1 mps 677 mmHg 87%
21:00 +16°C° 0 mm 1 mps 677 mmHg 87%
22:00 +15°C° 0 mm 1 mps 677 mmHg 86%
23:00 +14°C° 0 mm 0 mps 677 mmHg 86%

Tomorrow, 23 June, Wednesday

Time Temperature Precipitation Wind Pressure Humidity
00:00 +14°C° 0 mm 0 mps 677 mmHg 87%
01:00 +14°C° 0 mm 0 mps 677 mmHg 88%
02:00 +13°C° 0 mm 0 mps 677 mmHg 89%
03:00 +14°C° 0 mm 0 mps 677 mmHg 90%
04:00 +14°C° 0 mm 0 mps 677 mmHg 90%
05:00 +14°C° 0 mm 0 mps 677 mmHg 90%
06:00 +16°C° 0 mm 0 mps 678 mmHg 84%
07:00 +19°C° 0 mm 1 mps 678 mmHg 78%
08:00 +21°C° 0 mm 1 mps 678 mmHg 73%
09:00 +22°C° 0 mm 1 mps 679 mmHg 66%
10:00 +24°C° 0 mm 2 mps 679 mmHg 60%
11:00 +25°C° 0 mm 2 mps 679 mmHg 54%
12:00 +26°C° 0 mm 2 mps 679 mmHg 51%
13:00 +27°C° 0 mm 3 mps 679 mmHg 49%
14:00 +28°C° 0 mm 3 mps 679 mmHg 46%
15:00 +25°C° 1.8 mm 3 mps 678 mmHg 56%
16:00 +22°C° 1.8 mm 3 mps 678 mmHg 65%
17:00 +20°C° 1.8 mm 3 mps 678 mmHg 75%
18:00 +19°C° 1.5 mm 3 mps 678 mmHg 78%
19:00 +18°C° 1.5 mm 2 mps 679 mmHg 82%
20:00 +18°C° 1.5 mm 1 mps 679 mmHg 85%
21:00 +18°C° 0 mm 1 mps 679 mmHg 86%
22:00 +16°C° 0 mm 1 mps 678 mmHg 86%
23:00 +15°C° 0 mm 0 mps 678 mmHg 87%

Day after tomorrow, 24 June, Thursday

Time Temperature Precipitation Wind Pressure Humidity
00:00 +16°C° 0 mm 1 mps 678 mmHg 88%
01:00 +15°C° 0 mm 1 mps 678 mmHg 90%
02:00 +15°C° 0 mm 1 mps 678 mmHg 91%
03:00 +15°C° 0 mm 1 mps 678 mmHg 92%
04:00 +15°C° 0 mm 1 mps 678 mmHg 93%
05:00 +16°C° 0 mm 1 mps 678 mmHg 93%
06:00 +18°C° 0 mm 1 mps 678 mmHg 85%
07:00 +20°C° 0 mm 1 mps 679 mmHg 76%
08:00 +20°C° 0 mm 2 mps 679 mmHg 68%
09:00 +23°C° 0 mm 2 mps 679 mmHg 62%
10:00 +24°C° 0 mm 3 mps 679 mmHg 56%
11:00 +25°C° 0 mm 3 mps 679 mmHg 50%
12:00 +26°C° 0 mm 3 mps 679 mmHg 48%
13:00 +26°C° 0 mm 4 mps 679 mmHg 46%
14:00 +27°C° 0 mm 4 mps 679 mmHg 45%
15:00 +27°C° 0 mm 4 mps 679 mmHg 46%
16:00 +26°C° 0 mm 4 mps 679 mmHg 48%
17:00 +26°C° 0 mm 4 mps 678 mmHg 49%
18:00 +24°C° 0 mm 3 mps 678 mmHg 58%
19:00 +21°C° 0 mm 3 mps 678 mmHg 66%
20:00 +19°C° 0 mm 2 mps 678 mmHg 75%
21:00 +18°C° 0 mm 2 mps 678 mmHg 78%
22:00 +18°C° 0 mm 2 mps 678 mmHg 81%
23:00 +17°C° 0 mm 2 mps 678 mmHg 84%

25 June, Friday

Time Temperature Precipitation Wind Pressure Humidity
00:00 +16°C° 0 mm 1 mps 678 mmHg 86%
01:00 +16°C° 0 mm 1 mps 678 mmHg 87%
02:00 +15°C° 0 mm 1 mps 677 mmHg 89%
03:00 +15°C° 0 mm 1 mps 678 mmHg 88%
04:00 +15°C° 0 mm 1 mps 678 mmHg 88%
05:00 +15°C° 0 mm 1 mps 678 mmHg 88%
06:00 +18°C° 0 mm 1 mps 678 mmHg 80%
07:00 +19°C° 0 mm 2 mps 678 mmHg 72%
08:00 +20°C° 0 mm 2 mps 678 mmHg 64%
09:00 +23°C° 0 mm 2 mps 678 mmHg 60%
10:00 +24°C° 0 mm 3 mps 679 mmHg 56%
11:00 +26°C° 0 mm 3 mps 679 mmHg 51%
12:00 +26°C° 0 mm 3 mps 678 mmHg 49%
13:00 +27°C° 0 mm 3 mps 678 mmHg 48%
14:00 +27°C° 0 mm 3 mps 678 mmHg 46%
15:00 +27°C° 0 mm 4 mps 678 mmHg 48%
16:00 +26°C° 0 mm 4 mps 678 mmHg 50%
17:00 +26°C° 0 mm 4 mps 677 mmHg 52%
18:00 +23°C° 0 mm 4 mps 677 mmHg 60%
19:00 +22°C° 0 mm 3 mps 677 mmHg 68%
20:00 +20°C° 0 mm 2 mps 677 mmHg 76%
21:00 +19°C° 0 mm 2 mps 677 mmHg 80%
22:00 +18°C° 0 mm 2 mps 677 mmHg 84%
23:00 +18°C° 0 mm 1 mps 677 mmHg 89%

26 June, Saturday

Time Temperature Precipitation Wind Pressure Humidity
00:00 +18°C° 0 mm 1 mps 677 mmHg 90%
01:00 +16°C° 0 mm 1 mps 676 mmHg 91%
02:00 +16°C° 0 mm 1 mps 676 mmHg 93%
03:00 +16°C° 0 mm 1 mps 677 mmHg 93%
04:00 +16°C° 0 mm 1 mps 677 mmHg 93%
05:00 +16°C° 0 mm 1 mps 677 mmHg 93%
06:00 +19°C° 0 mm 1 mps 677 mmHg 83%
07:00 +21°C° 0 mm 1 mps 678 mmHg 74%
08:00 +21°C° 0 mm 2 mps 678 mmHg 65%
09:00 +24°C° 0 mm 2 mps 678 mmHg 59%
10:00 +25°C° 0 mm 2 mps 678 mmHg 52%
11:00 +27°C° 0 mm 2 mps 678 mmHg 46%
12:00 +27°C° 0 mm 3 mps 678 mmHg 43%
13:00 +28°C° 0 mm 3 mps 678 mmHg 41%
14:00 +29°C° 0 mm 3 mps 678 mmHg 38%
15:00 +28°C° 0 mm 3 mps 678 mmHg 39%
16:00 +28°C° 0 mm 3 mps 677 mmHg 41%
17:00 +27°C° 0 mm 3 mps 677 mmHg 42%
18:00 +26°C° 0 mm 3 mps 677 mmHg 51%
19:00 +24°C° 0 mm 2 mps 677 mmHg 59%
20:00 +21°C° 0 mm 2 mps 677 mmHg 67%
21:00 +20°C° 0 mm 2 mps 677 mmHg 72%
22:00 +19°C° 0 mm 2 mps 677 mmHg 76%
23:00 +19°C° 0 mm 1 mps 677 mmHg 81%

27 June, Sunday

Time Temperature Precipitation Wind Pressure Humidity
00:00 +19°C° 0 mm 1 mps 677 mmHg 83%
01:00 +19°C° 0 mm 1 mps 677 mmHg 85%
02:00 +18°C° 0 mm 1 mps 677 mmHg 88%
03:00 +18°C° 0 mm 1 mps 677 mmHg 88%
04:00 +18°C° 0 mm 1 mps 677 mmHg 88%
05:00 +18°C° 0 mm 1 mps 677 mmHg 88%
06:00 +20°C° 0 mm 1 mps 678 mmHg 79%
07:00 +22°C° 0 mm 1 mps 678 mmHg 70%
08:00 +24°C° 0 mm 1 mps 678 mmHg 61%
09:00 +25°C° 0 mm 2 mps 679 mmHg 55%
10:00 +27°C° 0 mm 2 mps 679 mmHg 49%
11:00 +28°C° 0 mm 3 mps 679 mmHg 43%
12:00 +29°C° 0 mm 3 mps 679 mmHg 41%
13:00 +29°C° 0 mm 3 mps 679 mmHg 40%
14:00 +30°C° 0 mm 4 mps 679 mmHg 38%
15:00 +30°C° 0 mm 4 mps 679 mmHg 40%
16:00 +29°C° 0 mm 4 mps 679 mmHg 41%
17:00 +29°C° 0 mm 4 mps 679 mmHg 43%
18:00 +27°C° 0 mm 4 mps 679 mmHg 52%
19:00 +25°C° 0 mm 3 mps 678 mmHg 61%
20:00 +23°C° 0 mm 2 mps 678 mmHg 69%
21:00 +21°C° 0 mm 2 mps 678 mmHg 74%
22:00 +20°C° 0 mm 2 mps 678 mmHg 79%
23:00 +19°C° 0 mm 2 mps 678 mmHg 83%
Show more

We Need Your Consent

Meteoprog and our Service Providers may store and access personal data such as cookies, device identifiers or other similar technologies on your device and process such data to personalise content and ads, as well as provide social media features and to analyse the traffic.

  • Store and/or access information on your device

    Cookies, device identifiers or other information can be stored or accessed on your device for the purposes indicated above.

  • Personalised ads and content, ad and content measurement, audience insights, and products development

    Ads and content can be personalised based on a profile. More data can be added to better personalise ads and content. Ad and content performance can be measured. Insights about the audience who saw the ads and content can be derived. Such data can be used to develop or improve user’s experience, systems and software.

By clicking ‘I Agree’ you will allow the use of indicated cookies, device identifiers, web beacons or other similar technologies. Your settings can be changed in the browser on your device.

For certain purposes, legitimate interests may be relied on, rather than consent. You can read more about this in our Privacy and Cookie Policy.